User: anonymous   Login
Location: Melbourne
(37.8170°S, 144.9670°E)
Time: 20:26:32
(UTC+10:00)
Language:

Cosmos 1656 Rocket - Orbit

View from above orbital plane
View from above orbital plane
View from above satellite
View from above satellite

Ground track
Ground track

The orbit data is extracted from the following two-line orbital elements,

1 15772U 85042D   17175.58898946 +.00000037 +00000-0 +38597-4 0  9995
2 15772 071.1084 320.0925 0034500 028.5950 024.8697 14.21203962662502
Epoch (UTC): 24 June 2017 14:08:08
Eccentricity: 0.0034500
inclination: 71.1084°
perigee height: 796 km
apogee height: 846 km
right ascension of ascending node: 320.0925°
argument of perigee: 28.5950°
revolutions per day: 14.21203962
mean anomaly at epoch: 24.8697°
orbit number at epoch: 66250

The dashed part of the orbit path shows where the satellite is in the earth's shadow,  

DLR